[[{"header":{"parameterUnit":"m.s-1","parameterCategory":1,"la1":30.2991,"la2":30.254,"lo1":-89.0895,"lo2":-89.0444,"dy":0.0017,"dx":0.0017,"nx":28,"ny":28,"refTime":"2023-08-20T21:00:00:Z","depth":0,"parameterNumber":2,"parameterNumberName":"U-component_of_WINDS"},"data":[0,0,0,0,0,0,0,0,0,0,0,0,0,0,0,0,0,0,0,0,0,0,0,0,0,0,0,0,0,0,0,0,0,0,0,0,0,0,0,0,0,0,0,0,0,0,0,0,0,0,0,0,0,0,0,0,0,0,-2.8102,-2.8103,0,-2.8147,-2.8148,-2.8148,-2.8108,-2.8106,-2.8105,-2.8103,-2.8151,-2.8154,-2.8157,0,0,0,0,0,0,0,0,0,0,0,0,0,-2.7985,-2.7987,-2.8102,-2.8103,-2.8103,-2.8147,-2.8148,-2.8148,-2.8108,-2.8106,-2.8104,-2.8103,-2.815,-2.8154,-2.8157,0,0,0,0,0,0,0,0,0,0,0,0,0,-2.8034,-2.7988,-2.8102,-2.8089,-2.8088,-2.8147,-2.8148,-2.8148,-2.8109,-2.8106,-2.8104,-2.8102,-2.8149,-2.8153,-2.8157,-2.8233,0,0,-2.817,-2.8172,0,0,0,0,0,0,0,0,-2.8031,-2.8038,-2.809,-2.809,-2.8089,-2.8119,-2.8124,-2.8177,-2.8109,-2.8101,-2.8103,-2.81,-2.8143,-2.8147,-2.8161,-2.8235,-2.8237,-2.8171,-2.8173,-2.8175,-2.8176,0,0,0,0,0,0,0,-2.8028,-2.8036,-2.812,-2.8091,-2.809,-2.8081,-2.8086,-2.8134,-2.8135,-2.8101,-2.8099,-2.8104,-2.8142,-2.8157,-2.8162,-2.8238,-2.8171,-2.8174,-2.8177,-2.8179,-2.8378,-2.838,0,0,0,0,0,0,-2.8025,-2.8033,-2.8119,-2.8121,-2.8053,-2.8086,-2.809,-2.8112,-2.8134,-2.8136,-2.8107,-2.8102,-2.8151,-2.8157,-2.8164,-2.8254,-2.8175,-2.8179,-2.8181,-2.8375,-2.8378,-2.8381,0,0,0,0,0,0,-2.8023,-2.8033,-2.8117,-2.8077,-2.8087,-2.809,-2.8115,-2.8114,-2.8129,-2.8138,-2.8139,-2.8122,-2.815,-2.8158,-2.8216,-2.8255,-2.8181,-2.8185,-2.8372,-2.8376,-2.838,-2.8435,0,0,0,0,0,0,-2.802,-2.8033,-2.806,-2.8077,-2.8089,-2.8168,-2.8118,-2.8117,-2.8137,-2.8132,-2.8153,-2.8154,-2.8148,-2.821,-2.822,-2.826,-2.8188,-2.8368,-2.8374,-2.8378,-2.843,-2.8441,-2.845,0,0,0,0,0,-2.8016,-2.8074,-2.8062,-2.8072,-2.8123,-2.817,-2.8176,-2.8168,-2.814,-2.8168,-2.8175,-2.8153,-2.825,-2.8216,-2.8228,-2.8269,-2.8366,-2.8372,-2.8378,-2.8425,-2.8439,-2.845,0,0,0,0,0,0,-2.8061,-2.8076,-2.8063,-2.8128,-2.8148,-2.8163,-2.8198,-2.8182,-2.8211,-2.8206,-2.8195,-2.82,-2.8262,-2.8271,-2.8234,-2.8344,-2.8303,-2.8312,-2.8335,-2.8348,-2.8358,-2.8354,-2.8191,0,0,0,0,0,-2.8079,-2.8115,-2.8126,-2.8183,-2.8194,-2.8195,-2.8214,-2.8207,-2.8227,-2.8236,-2.8246,-2.8267,-2.8303,-2.8326,-2.8359,-2.8432,-2.8436,-2.8466,-2.8476,-2.8484,-2.8491,-2.8532,-2.8546,-2.8402,-2.8402,-2.8402,0,0,-2.8116,-2.8128,-2.8151,-2.8192,-2.8207,-2.8245,-2.8202,-2.8244,-2.8272,-2.8242,-2.8298,-2.8307,-2.833,-2.8396,-2.8426,-2.8406,-2.8533,-2.8492,-2.8498,-2.8501,-2.854,-2.8554,-2.8566,-2.8406,-2.8405,-2.8405,0,0,-2.8203,-2.8215,-2.8264,-2.828,-2.8303,-2.8304,-2.8316,-2.8334,-2.8338,-2.8394,-2.8373,-2.8408,-2.8468,-2.8486,-2.8503,-2.86,-2.8582,-2.8611,-2.8663,-2.8703,-2.8714,-2.8724,-2.876,-2.8772,-2.8619,-2.8619,-2.8619,0,-2.8245,-2.8301,-2.8292,-2.8336,-2.8355,-2.833,-2.8381,-2.8397,-2.843,-2.8444,-2.8421,-2.8498,-2.8512,-2.8583,-2.8607,-2.8621,-2.8636,-2.8608,-2.8713,-2.8723,-2.8733,-2.8766,-2.8779,-2.8622,-2.8622,-2.8621,-2.8621,0,-2.8354,-2.8393,-2.843,-2.8462,-2.8486,-2.8533,-2.8532,-2.8558,-2.8549,-2.8553,-2.8611,-2.8627,-2.8664,-2.868,-2.8672,-2.8751,-2.8738,-2.8715,-2.8673,-2.875,-2.8781,-2.8794,-2.8627,-2.8626,-2.8625,-2.8624,0,0,-2.8468,-2.8496,-2.851,-2.8525,-2.8549,-2.858,-2.8627,-2.8663,-2.8685,-2.8709,-2.8749,-2.8802,-2.8782,-2.8801,-2.8795,-2.883,-2.8907,-2.8803,-2.8803,-2.8822,-2.8997,-2.9014,-2.9029,-2.8896,-2.8898,-2.89,-2.8995,0,-2.8556,-2.8637,-2.8631,-2.8708,-2.8745,-2.8723,-2.8764,-2.8784,-2.879,-2.8823,-2.8829,-2.8867,-2.8836,-2.8848,-2.8882,-2.889,-2.8942,-2.8884,-2.8934,-2.8936,-2.8928,-2.9045,-2.9063,-2.9151,-2.9007,-2.9009,-2.901,0,-2.8669,-2.8697,-2.8777,-2.8798,-2.8813,-2.885,-2.8883,-2.8915,-2.8938,-2.894,-2.8963,-2.8952,-2.9001,-2.896,-2.9028,-2.8989,-2.9009,-2.9017,-2.902,-2.9024,-2.8977,-2.9052,-2.9179,-2.9193,-2.9029,-2.9028,-2.9027,0,-2.8745,-2.8803,-2.8859,-2.8873,-2.8898,-2.8924,-2.8936,-2.8957,-2.898,-2.9009,-2.9024,-2.9059,-2.9078,-2.9106,-2.9106,-2.9075,-2.9176,-2.9134,-2.918,-2.918,-2.9201,-2.9199,-2.9333,-2.9215,-2.9214,-2.9214,-2.9214,0,-2.8844,-2.8894,-2.8894,-2.8928,-2.8985,-2.8978,-2.9035,-2.9044,-2.9063,-2.91,-2.9084,-2.9119,-2.9116,-2.9152,-2.9152,-2.921,-2.9218,-2.9222,-2.9221,-2.9223,-2.9223,-2.9236,-2.923,-2.9218,-2.9217,-2.9216,-2.9216,0,-2.8938,-2.894,-2.9,-2.9019,-2.9025,-2.9066,-2.9083,-2.9116,-2.9121,-2.9168,-2.9179,-2.9187,-2.9229,-2.9231,-2.9279,-2.9279,-2.935,-2.9342,-2.9342,-2.934,-2.9386,-2.9382,-2.9533,-2.9553,-2.9421,-2.9422,-2.9423,0,-2.9001,-2.9039,-2.9062,-2.9086,-2.9099,-2.9137,-2.916,-2.9156,-2.9181,-2.9212,-2.9242,-2.9282,-2.9314,-2.9383,-2.9393,-2.9431,-2.9424,-2.9475,-2.943,-2.9431,-2.9426,-2.9424,-2.9428,-2.9483,-2.9485,-2.9486,-2.9487,0,-2.9112,-2.9112,-2.9145,-2.9179,-2.9207,-2.9234,-2.9259,-2.9279,-2.9278,-2.9308,-2.935,-2.9375,-2.9425,-2.9466,-2.9503,-2.9516,-2.9503,-2.9501,-2.9514,-2.9516,-2.9515,-2.9517,-2.9365,-2.9498,-2.9497,-2.9496,-2.9495,-2.9495,-2.9193,-2.9226,-2.9248,-2.9286,-2.9305,-2.9329,-2.9362,-2.9371,-2.9406,-2.9446,-2.9442,-2.949,-2.9515,-2.9563,-2.958,-2.9618,-2.9601,-2.9619,-2.9624,-2.9628,-2.9633,-2.9509,-2.9625,-2.9624,-2.9624,-2.9624,-2.9624,0,-2.9304,-2.9317,-2.9352,-2.9388,-2.9419,-2.9402,-2.943,-2.9457,-2.9499,-2.9522,-2.9554,-2.9604,-2.9645,-2.9659,-2.9699,-2.9727,-2.9722,-2.9737,-2.9735,-2.9739,-2.9646,-2.9631,-2.9741,-2.9741,-2.9741,-2.9741,-2.9741,-2.9741,-2.9365,-2.9421,-2.9424,-2.949,-2.9503,-2.9549,-2.9566,-2.9589,-2.9608,-2.9665,-2.9698,-2.9707,-2.9728,-2.9769,-2.9806,-2.9809,-2.9825,-2.9843,-2.9844,-2.9757,-2.9745,-2.9734,-2.972,-2.9847,-2.9847,-2.9934,-2.9935,-2.9936]},{"header":{"parameterUnit":"m.s-1","parameterCategory":1,"la1":30.2991,"la2":30.254,"lo1":-89.0895,"lo2":-89.0444,"dy":0.0017,"dx":0.0017,"nx":28,"ny":28,"refTime":"2023-08-20T21:00:00:Z","depth":0,"parameterNumber":3,"parameterNumberName":"V-component_of_WINDS"},"data":[0,0,0,0,0,0,0,0,0,0,0,0,0,0,0,0,0,0,0,0,0,0,0,0,0,0,0,0,0,0,0,0,0,0,0,0,0,0,0,0,0,0,0,0,0,0,0,0,0,0,0,0,0,0,0,0,0,0,2.8348,2.8348,0,2.8366,2.8366,2.8367,2.8392,2.8392,2.8392,2.8393,2.8409,2.8409,2.8409,0,0,0,0,0,0,0,0,0,0,0,0,0,2.8332,2.8332,2.8348,2.8348,2.8348,2.8366,2.8366,2.8367,2.8392,2.8392,2.8393,2.8393,2.8409,2.8409,2.8409,0,0,0,0,0,0,0,0,0,0,0,0,0,2.8344,2.8332,2.8348,2.8363,2.8364,2.8366,2.8366,2.8367,2.8391,2.8392,2.8393,2.8393,2.8409,2.8409,2.8409,2.8397,0,0,2.841,2.841,0,0,0,0,0,0,0,0,2.8343,2.8344,2.836,2.8362,2.8364,2.8377,2.8367,2.8377,2.8391,2.8381,2.8393,2.8394,2.8398,2.8399,2.8401,2.8398,2.8399,2.841,2.841,2.841,2.841,0,0,0,0,0,0,0,2.8342,2.8343,2.8355,2.8361,2.8362,2.8368,2.837,2.8369,2.8386,2.8382,2.8384,2.8386,2.8399,2.8401,2.8402,2.8399,2.841,2.841,2.841,2.841,2.8387,2.8386,0,0,0,0,0,0,2.8339,2.8343,2.8354,2.8356,2.8355,2.8368,2.837,2.8372,2.8386,2.8388,2.8385,2.8387,2.84,2.8401,2.8402,2.8389,2.841,2.841,2.841,2.8387,2.8387,2.8386,0,0,0,0,0,0,2.8339,2.834,2.8354,2.835,2.8352,2.8368,2.8369,2.8372,2.8374,2.8388,2.8391,2.8384,2.8401,2.8402,2.8398,2.839,2.841,2.841,2.8388,2.8387,2.8386,2.8362,0,0,0,0,0,0,2.8338,2.834,2.8336,2.8349,2.8352,2.835,2.8369,2.8372,2.8375,2.8377,2.8388,2.8391,2.8402,2.8398,2.8398,2.839,2.841,2.8389,2.8388,2.8387,2.8363,2.836,2.8357,0,0,0,0,0,2.8338,2.8327,2.8335,2.8337,2.8347,2.8349,2.8351,2.8364,2.8374,2.8369,2.8379,2.839,2.8391,2.8398,2.8398,2.839,2.839,2.8388,2.8387,2.8365,2.836,2.8357,0,0,0,0,0,0,2.8311,2.8329,2.8338,2.8332,2.8339,2.8354,2.8348,2.836,2.8363,2.8365,2.8381,2.8384,2.8378,2.8384,2.8391,2.8379,2.8392,2.8391,2.8375,2.8371,2.8368,2.8366,2.841,0,0,0,0,0,2.8304,2.8305,2.8321,2.8314,2.8317,2.8332,2.8334,2.8344,2.8351,2.8354,2.8363,2.8369,2.8371,2.8372,2.8374,2.8365,2.8367,2.8359,2.8356,2.8353,2.8351,2.8347,2.8344,2.8381,2.8381,2.8381,0,0,2.829,2.8301,2.83,2.8309,2.8316,2.8316,2.8334,2.8334,2.8334,2.8354,2.8351,2.8358,2.8366,2.8359,2.8357,2.8364,2.8342,2.8351,2.8349,2.8349,2.8345,2.8342,2.8338,2.838,2.838,2.8381,0,0,2.8265,2.8273,2.8269,2.8275,2.8286,2.8296,2.8295,2.8308,2.8313,2.8311,2.8326,2.8326,2.8329,2.8334,2.8337,2.8315,2.8326,2.8316,2.8299,2.8294,2.8291,2.8289,2.8281,2.8277,2.8314,2.8314,2.8314,0,2.8246,2.8248,2.8264,2.8263,2.8266,2.8286,2.8281,2.8286,2.8296,2.8298,2.8306,2.831,2.8317,2.8312,2.8307,2.8309,2.8307,2.8314,2.8291,2.8288,2.8286,2.8278,2.8275,2.8313,2.8313,2.8313,2.8313,0,2.8224,2.8225,2.822,2.823,2.8233,2.823,2.8246,2.8246,2.8257,2.8266,2.8263,2.8273,2.8277,2.8277,2.8286,2.8273,2.8277,2.8288,2.8301,2.8281,2.8274,2.8271,2.8311,2.8311,2.8312,2.8312,0,0,2.8181,2.8202,2.82,2.8205,2.8218,2.8219,2.8217,2.8222,2.8222,2.8229,2.8227,2.823,2.824,2.8243,2.8253,2.825,2.8231,2.8261,2.8261,2.8254,2.8217,2.8209,2.8205,2.8239,2.8239,2.8238,2.8216,0,2.8158,2.8156,2.8171,2.8165,2.8166,2.8185,2.8183,2.8191,2.8199,2.8201,2.8211,2.8212,2.8225,2.8228,2.8225,2.8234,2.8224,2.8236,2.8237,2.8236,2.8233,2.8201,2.8192,2.8171,2.8214,2.8213,2.8213,0,2.813,2.8137,2.813,2.8145,2.8146,2.8144,2.815,2.8152,2.8161,2.8168,2.8172,2.8185,2.8183,2.8197,2.8195,2.8203,2.8204,2.8209,2.8208,2.8208,2.8223,2.8199,2.8165,2.8161,2.8209,2.8209,2.821,0,2.8099,2.8106,2.8103,2.8107,2.8124,2.8122,2.8129,2.8139,2.8141,2.8147,2.8149,2.8154,2.8156,2.816,2.8173,2.8182,2.8169,2.8184,2.8174,2.8173,2.8169,2.8169,2.8133,2.8171,2.8172,2.8172,2.8172,0,2.8071,2.8066,2.809,2.8088,2.8083,2.8101,2.8096,2.8104,2.8113,2.8113,2.813,2.8129,2.8147,2.8149,2.8159,2.8155,2.8156,2.8161,2.8164,2.8159,2.8158,2.8159,2.8161,2.8171,2.8171,2.8171,2.8171,0,2.8034,2.805,2.8048,2.8065,2.8069,2.8065,2.8079,2.8078,2.8088,2.8088,2.8089,2.8105,2.8107,2.8121,2.8127,2.8134,2.8126,2.8132,2.8123,2.8125,2.8113,2.8114,2.8076,2.8072,2.8113,2.8113,2.8113,0,2.8015,2.8012,2.8029,2.8031,2.8037,2.8039,2.8042,2.806,2.8062,2.8073,2.807,2.8075,2.8079,2.8082,2.8093,2.8098,2.8103,2.809,2.8104,2.8099,2.8102,2.8102,2.8101,2.8086,2.8086,2.8085,2.8085,0,2.7979,2.7987,2.7991,2.7998,2.8002,2.8008,2.8015,2.8016,2.8035,2.8037,2.804,2.8044,2.805,2.8053,2.806,2.8066,2.8078,2.8081,2.8078,2.8073,2.8068,2.807,2.8114,2.8081,2.8081,2.8082,2.8082,2.8082,2.795,2.7948,2.796,2.7964,2.7972,2.7979,2.7979,2.799,2.7993,2.8,2.801,2.8012,2.8022,2.8032,2.8038,2.8039,2.8046,2.8043,2.8042,2.804,2.8038,2.8069,2.804,2.804,2.804,2.804,2.8041,0,2.7914,2.7923,2.7927,2.7937,2.794,2.7954,2.7962,2.7964,2.7966,2.7974,2.7979,2.7982,2.7986,2.7999,2.8004,2.8002,2.8008,2.8003,2.8003,2.8004,2.8031,2.8033,2.7998,2.7998,2.7998,2.7998,2.7998,2.7998,2.7896,2.7894,2.7903,2.7905,2.7914,2.7917,2.7921,2.7927,2.7934,2.7938,2.7942,2.795,2.796,2.7967,2.797,2.7974,2.7975,2.7968,2.7973,2.7998,2.8002,2.8006,2.8007,2.7968,2.7968,2.7945,2.7945,2.7945]}]]